Location: Les Salelles
(44.4192°N, 4.1044°E)
Time: 16:28:48
(UTC+00:00)

ISS - Pass Details

Date: 20 January 2021
Orbit: 417 x 422 km, 51.6° (Epoch: 27 February)

Event Time Altitude Azimuth Distance (km) Brightness Sun altitude
Rises 19:09:05 0° 255° (WSW) 2,371 1.3 -26.9°
Reaches altitude 10° 19:11:14 10° 262° (W) 1,509 0.0 -27.3°
Enters shadow 19:12:45 23° 274° (W) 951 -1.3 -27.6°
